Regional Weather Roundup
Issued by NWS State College, PA

Home | Current Version | Previous Version | Text Only | Print | Product List | Glossary On
Versions: 1 2 3 4 5 6 7 8 9 10 11 12 13 14 15 16 17 18 19 20 21 22 23 24 25 26 27 28 29 30 31 32 33 34 35 36 37 38 39 40 41 42 43 44 45 46 47 48 49 50
733
ASUS41 KCTP 110003
RWRCTP

REGIONAL WEATHER ROUNDUP
NATIONAL WEATHER SERVICE STATE COLLEGE PA
700 PM EST WED FEB 10 2016

Note: "fair" indicates few or no clouds below 12,000 feet with no
significant weather and/or obstructions to visibility.

* = STATION THAT DOES NOT REPORT PRECIPITATION /E.G. RAIN...SNOW...ETC/
    THUNDER OR FOG.

PAZ002>004-007>009-013>016-020>023-029>032-110100-
WESTERN PENNSYLVANIA

CITY           SKY/WX    TMP DP  RH WIND       PRES   REMARKS
ERIE           CLOUDY    20   6  55 NW17G29   29.86R HAZE    WCI   5
MEADVILLE      LGT SNOW  15  10  80 W6        29.82R WCI   6
FRANKLIN*      CLOUDY    16   9  73 NW9       29.82R WCI   4
NEW CASTLE     CLOUDY    17  13  84 W6        29.87R WCI   9
BEAVER COUNTY  LGT SNOW  19  16  86 W7        29.86R WCI  10
BUTLER*        PTCLDY    19  12  73 W14G20    29.88R WCI   6
PITTSBURGH INT LGT SNOW  18  11  74 W10G22    29.86R WCI   6
PITTSBURGH     MOCLDY    19  10  68 W13       29.86R WCI   6
INDIANA*       CLOUDY    18  14  86 W13       29.85R WCI   4
LATROBE        FLURRIES N/A N/A N/A SW14      29.87R
WASHINGTON CO* MOCLDY    18  10  73 SW10G18   29.89R WCI   6
$$

PAZ004>006-010>012-017>019-024>028-033>037-041-042-045-046-049>053-110100-
CENTRAL PENNSYLVANIA

CITY           SKY/WX    TMP DP  RH WIND       PRES   REMARKS
BRADFORD       FLURRIES  14   5  67 W12G22    29.71R WCI   0
DUBOIS         LGT SNOW  17  13  84 W12G21    29.74R VSB 3/4 WCI   4
CLEARFIELD     LGT SNOW  18  12  77 SW12      29.77R WCI   5
JOHNSTOWN      LGT SNOW  14   8  77 W10       29.74R WCI   1
ALTOONA        CLOUDY    18  10  71 W13       29.81R WCI   5
STATE COLLEGE  CLOUDY    19  12  73 W13       29.79R WCI   7
WILLIAMSPORT   CLOUDY    26  13  57 W10       29.77R
SELINSGROVE    CLOUDY    26  12  55 W7        29.82R
FT INDIANTOWN  NOT AVBL
CAPITAL CITY   CLOUDY    28  11  48 W14       29.83R
HARRISBURG     CLOUDY    29  14  53 W21G28    29.83R
YORK           CLOUDY    25  12  58 W13       29.83R WCI  14
$$

PAZ038>040-043-044-047-048-054-055-060>062-067>071-110100-
EASTERN PENNSYLVANIA

CITY           SKY/WX    TMP DP  RH WIND       PRES   REMARKS
SCRANTON       LGT SNOW  27  18  69 W12G23    29.70R
MOUNT POCONO   PTCLDY    22  14  71 W13       29.63R WCI  10
ALLENTOWN      MOCLDY    30  15  53 W13G20    29.76R
QUAKERTOWN*    NOT AVBL
READING        CLOUDY    29  14  53 W13       29.79R
LANCASTER      CLOUDY    27  14  58 W17       29.80R WCI  14
COATESVILLE    MOCLDY    27  16  63 W10       29.79R
POTTSTOWN      MOCLDY    28  15  58 W9        29.80R
BLUE BELL        N/A     30  18  59 W8        29.78R
DOYLESTOWN     PTCLDY    28  14  55 W7        29.76R
WILLOW GROVE   NOT AVBL
NORTH PHILA    MOCLDY    32  17  54 W10       29.80R
PHILADELPHIA   CLOUDY    33  15  47 W20       29.82R
$$




USA.gov is the U.S. government's official web portal to all federal, state and local government web resources and services.